Location: Baix
(44.7118°N, 4.7648°E)
Time: 14:56:42
(UTC+00:00)

Explorer 11/Cluster Stage 4 - Pass Details

Date: 01 December 2020
Orbit: 467 x 1258 km, 28.8° (Epoch: 14 January)

Event Time Altitude Azimuth Distance (km) Brightness Sun altitude
Rises 19:00:44 0° 210° (SSW) 4,131 10.7 -31.1°
Reaches altitude 10° 19:05:51 10° 184° (S) 3,055 9.6 -32.0°
Enters shadow 19:07:13 12° 174° (S) 2,890 9.4 -32.3°
Maximum altitude 19:08:40 12° 162° (SSE) 2,797 - -32.5°
Drops below altitude 10° 19:11:20 10° 140° (SE) 2,878 - -33.0°
Sets 19:15:48 0° 112° (ESE) 3,643 - -33.8°
